Location: Brachbach
(49.1847°N, 9.7240°E)
Time: 21:20:09
(UTC+00:00)

Cosmos 2219 Rocket - Pass Details

Date: 18 August 2024
Orbit: 826 x 846 km, 71.0° (Epoch: 09 September)

Event Time Altitude Azimuth Distance (km) Brightness Sun altitude
Exits shadow 21:42:50 16° 79° (E) 2,083 4.1 -24.1°
Drops below altitude 10° 21:44:56 10° 59° (ENE) 2,477 4.7 -24.3°
Sets 21:48:10 0° 41° (NE) 3,418 5.7 -24.5°
